Temp
-8 -8 -7 -7 -7 -7 -7 -7 -7 -6 -6 -6 -6 -6 -5 -5 -5 -5 -5 -5 -4 -4 -5 -5 -5 -5 -5 -6 -6 -7 -6 -7 -6 -7 -7 -8 -6 -6 -7 -7 -7 -7 -6 -6 -6
-8 -8 -8 -8 -7 -7 -7 -7 -7 -7 -6 -6 -6 -6 -6 -6 -5 -5 -5 -5 -5 -4 -4 -5 -5 -5 -5 -5 -7 -5 -6 -7 -7 -6 -7 -7 -7 -7 -7 -7 -5 -7 -7 -7 -6
-8 -8 -8 -8 -8 -7 -7 -7 -7 -7 -6 -6 -6 -6 -6 -6 -6 -5 -5 -5 -5 -5 -5 -5 -5 -5 -5 -6 -7 -7 -7 -8 -7 -5 -6 -8 -7 -8 -8 -7 -5 -7 -7 -6 -6
-8 -8 -8 -8 -8 -7 -7 -7 -7 -7 -7 -6 -6 -6 -6 -6 -5 -5 -5 -5 -5 -5 -5 -5 -5 -5 -5 -6 -7 -7 -7 -8 -6 -5 -6 -7 -6 -8 -8 -8 -7 -7 -7 -6 -6
-8 -8 -8 -8 -8 -8 -7 -7 -7 -7 -6 -7 -6 -6 -6 -6 -5 -5 -5 -5 -5 -5 -5 -5 -5 -5 -5 -8 -6 -7 -8 -6 -6 -6 -6 -6 -7 -7 -7 -6 -7 -6 -6 -7 -7
-9 -9 -9 -9 -8 -8 -8 -7 -7 -7 -7 -7 -6 -6 -6 -6 -6 -6 -5 -5 -5 -5 -5 -5 -5 -5 -5 -5 -6 -6 -5 -5 -6 -6 -7 -7 -8 -8 -7 -7 -6 -6 -6 -6 -7
-9 -9 -9 -9 -8 -8 -8 -8 -7 -7 -7 -7 -7 -6 -6 -6 -6 -6 -5 -5 -5 -5 -5 -5 -5 -5 -5 -6 -6 -5 -5 -6 -6 -6 -7 -7 -7 -7 -7 -6 -6 -6 -7 -7 -7
-9 -9 -9 -9 -9 -8 -8 -8 -8 -7 -7 -7 -7 -6 -6 -6 -6 -6 -6 -6 -6 -5 -5 -5 -6 -6 -6 -5 -5 -6 -6 -6 -7 -7 -7 -6 -8 -8 -7 -6 -5 -6 -6 -7 -7
-9 -9 -9 -9 -9 -8 -8 -8 -8 -8 -8 -7 -7 -7 -6 -6 -6 -6 -6 -6 -6 -6 -5 -5 -6 -6 -6 -6 -6 -6 -7 -7 -7 -7 -6 -6 -7 -7 -7 -7 -6 -6 -7 -7 -7
-9 -9 -9 -9 -9 -9 -8 -8 -8 -8 -8 -7 -7 -7 -7 -6 -6 -6 -6 -6 -6 -6 -6 -6 -6 -6 -6 -6 -7 -7 -6 -6 -7 -7 -5 -6 -7 -7 -8 -6 -7 -6 -6 -7 -7
-10 -9 -9 -9 -9 -9 -9 -9 -8 -8 -8 -8 -7 -7 -7 -7 -7 -6 -6 -6 -6 -6 -6 -6 -6 -6 -7 -8 -7 -6 -7 -6 -7 -7 -6 -6 -6 -7 -8 -7 -7 -6 -7 -7 -7
-10 -10 -9 -9 -9 -9 -9 -9 -8 -8 -8 -8 -7 -7 -7 -7 -7 -7 -7 -6 -6 -6 -6 -6 -6 -7 -7 -6 -7 -6 -6 -6 -7 -7 -6 -6 -6 -7 -7 -6 -7 -7 -6 -7 -7
-10 -10 -10 -9 -9 -9 -9 -9 -9 -8 -8 -8 -8 -7 -7 -7 -7 -7 -7 -7 -6 -6 -6 -7 -8 -7 -6 -7 -7 -7 -6 -7 -7 -7 -6 -6 -6 -7 -7 -6 -6 -7 -7 -7 -7
-10 -10 -10 -10 -9 -9 -9 -9 -9 -9 -8 -8 -8 -8 -7 -7 -7 -7 -7 -7 -7 -7 -7 -7 -7 -6 -6 -7 -7 -7 -8 -7 -7 -6 -6 -7 -7 -7 -7 -7 -7 -6 -7 -7 -6
-10 -10 -10 -10 -10 -9 -9 -9 -9 -9 -9 -9 -8 -8 -8 -7 -8 -7 -7 -7 -7 -7 -7 -7 -7 -7 -7 -7 -7 -8 -7 -6 -6 -6 -6 -7 -7 -7 -7 -8 -8 -8 -6 -7 -7
-11 -10 -10 -10 -10 -10 -10 -9 -9 -9 -9 -10 -8 -8 -8 -8 -8 -7 -7 -7 -7 -7 -7 -7 -7 -7 -7 -7 -7 -7 -7 -7 -7 -6 -6 -7 -7 -6 -7 -7 -8 -8 -6 -7 -7
-11 -11 -10 -10 -10 -10 -10 -10 -9 -9 -9 -10 -9 -8 -8 -8 -8 -8 -8 -7 -7 -7 -7 -7 -7 -7 -7 -7 -7 -7 -7 -7 -7 -7 -7 -7 -7 -7 -7 -7 -6 -7 -7 -7 -7
-11 -11 -12 -11 -11 -11 -10 -10 -9 -9 -9 -10 -10 -9 -8 -8 -8 -8 -8 -8 -8 -8 -9 -8 -8 -7 -7 -7 -8 -8 -7 -8 -8 -7 -7 -8 -7 -7 -7 -7 -7 -7 -7 -7 -7
-11 -12 -13 -13 -12 -12 -11 -10 -10 -10 -10 -11 -11 -10 -9 -9 -9 -9 -8 -8 -8 -8 -8 -8 -8 -8 -9 -8 -7 -8 -8 -8 -8 -7 -7 -7 -7 -8 -8 -8 -7 -7 -7 -7 -7
-11 -12 -12 -13 -12 -12 -12 -11 -10 -11 -11 -12 -11 -9 -10 -10 -10 -10 -9 -8 -8 -8 -8 -9 -9 -9 -8 -8 -8 -8 -8 -8 -8 -8 -7 -7 -7 -7 -8 -8 -8 -8 -7 -7 -7
-11 -11 -12 -12 -12 -12 -12 -11 -11 -12 -12 -11 -10 -11 -10 -10 -10 -10 -10 -9 -9 -10 -10 -9 -8 -9 -9 -7 -8 -8 -8 -8 -8 -8 -8 -7 -7 -7 -8 -8 -8 -8 -8 -8 -8
-12 -11 -12 -12 -12 -12 -12 -12 -12 -14 -11 -10 -10 -10 -11 -11 -10 -10 -10 -10 -10 -10 -10 -9 -9 -9 -9 -9 -9 -9 -9 -9 -9 -8 -8 -7 -8 -9 -8 -8 -9 -8 -8 -8 -8
-12 -12 -12 -12 -11 -12 -12 -12 -12 -12 -11 -11 -11 -11 -10 -11 -10 -9 -10 -10 -10 -10 -10 -9 -9 -9 -9 -9 -9 -9 -9 -9 -9 -8 -8 -9 -8 -8 -9 -9 -10 -9 -9 -9 -9
-13 -13 -13 -13 -12 -11 -12 -12 -13 -11 -11 -12 -11 -11 -11 -10 -10 -10 -11 -10 -10 -10 -10 -9 -9 -9 -9 -9 -10 -9 -10 -9 -9 -9 -9 -9 -8 -9 -9 -9 -8 -10 -9 -9 -9
-13 -13 -12 -13 -13 -12 -12 -12 -12 -11 -11 -12 -11 -11 -10 -10 -10 -10 -10 -11 -10 -9 -9 -9 -9 -9 -8 -9 -10 -10 -9 -9 -9 -9 -9 -9 -9 -9 -9 -9 -9 -10 -10 -10 -9
-13 -13 -12 -12 -12 -12 -12 -12 -11 -11 -11 -11 -11 -11 -11 -11 -11 -11 -11 -10 -12 -10 -10 -10 -9 -9 -9 -8 -9 -10 -9 -9 -9 -9 -9 -9 -9 -9 -9 -9 -10 -10 -10 -10 -9
-14 -13 -13 -12 -13 -13 -14 -13 -12 -12 -12 -11 -11 -11 -11 -11 -11 -11 -10 -10 -11 -10 -10 -10 -9 -9 -9 -9 -9 -9 -10 -10 -10 -10 -9 -9 -9 -9 -9 -8 -8 -11 -10 -9 -9
Height
5885 5888 5890 5892 5894 5896 5898 5899 5901 5903 5905 5908 5910 5913 5914 5914 5917 5919 5920 5921 5922 5924 5926 5928 5930 5932 5933 5935 5934 5934 5932 5936 5947 5943 5944 5940 5936 5936 5934 5932 5930 5929 5926 5923 5920
5883 5886 5888 5890 5893 5895 5897 5898 5901 5903 5906 5907 5910 5913 5915 5915 5918 5920 5921 5922 5924 5926 5927 5928 5930 5932 5933 5935 5938 5935 5935 5933 5942 5942 5942 5941 5939 5938 5931 5921 5928 5927 5928 5924 5921
5882 5884 5886 5888 5891 5894 5895 5898 5900 5903 5905 5907 5909 5912 5915 5915 5917 5920 5921 5923 5925 5927 5928 5929 5931 5933 5934 5934 5939 5939 5931 5936 5942 5943 5941 5942 5941 5941 5938 5928 5929 5926 5928 5925 5923
5879 5881 5884 5887 5889 5892 5894 5897 5899 5902 5905 5907 5909 5912 5914 5915 5918 5919 5921 5923 5925 5926 5928 5929 5931 5933 5934 5936 5937 5934 5938 5940 5941 5942 5941 5939 5939 5940 5939 5930 5922 5926 5928 5925 5924
5876 5879 5882 5885 5887 5890 5892 5895 5898 5900 5903 5906 5909 5911 5913 5915 5917 5919 5921 5923 5925 5926 5927 5929 5930 5932 5934 5937 5937 5938 5940 5940 5941 5941 5940 5939 5938 5939 5939 5933 5933 5930 5928 5925 5923
5873 5876 5878 5881 5884 5887 5890 5893 5896 5899 5902 5905 5907 5909 5912 5915 5916 5919 5921 5923 5925 5926 5927 5928 5929 5931 5933 5934 5937 5937 5939 5939 5941 5941 5940 5938 5938 5939 5936 5935 5932 5928 5925 5924 5921
5869 5872 5875 5879 5882 5885 5888 5890 5894 5896 5900 5903 5905 5907 5910 5914 5915 5918 5920 5922 5923 5925 5926 5927 5929 5930 5931 5935 5936 5937 5939 5940 5941 5941 5940 5936 5938 5932 5935 5934 5929 5927 5925 5921 5918
5864 5868 5872 5875 5878 5882 5885 5888 5890 5894 5897 5900 5903 5905 5908 5910 5913 5916 5918 5920 5922 5924 5925 5927 5928 5930 5932 5934 5935 5937 5939 5939 5943 5942 5941 5939 5932 5935 5935 5931 5929 5927 5924 5921 5918
5859 5863 5867 5871 5875 5879 5882 5885 5887 5890 5894 5897 5900 5902 5907 5908 5911 5914 5916 5918 5921 5922 5924 5926 5927 5930 5931 5933 5936 5937 5939 5943 5937 5940 5941 5940 5940 5937 5933 5932 5929 5927 5924 5922 5918
5854 5858 5862 5867 5871 5875 5878 5881 5884 5888 5891 5894 5897 5901 5903 5906 5909 5911 5913 5916 5918 5920 5923 5925 5926 5928 5930 5933 5936 5940 5943 5944 5938 5944 5938 5938 5939 5940 5934 5932 5928 5927 5923 5921 5918
5849 5853 5857 5862 5866 5871 5875 5878 5881 5884 5887 5890 5895 5897 5900 5903 5906 5908 5911 5913 5915 5918 5921 5923 5925 5926 5930 5935 5932 5934 5935 5937 5938 5937 5937 5937 5937 5936 5936 5931 5928 5924 5922 5919 5917
5842 5847 5852 5857 5861 5865 5870 5872 5878 5882 5884 5886 5889 5893 5897 5900 5903 5905 5908 5911 5913 5916 5918 5922 5924 5925 5926 5927 5930 5932 5934 5936 5937 5935 5935 5935 5935 5935 5933 5929 5928 5922 5921 5917 5915
5835 5840 5846 5851 5855 5860 5864 5869 5873 5877 5880 5883 5887 5890 5894 5897 5899 5902 5905 5907 5910 5913 5916 5919 5923 5919 5923 5925 5928 5930 5931 5934 5934 5933 5933 5932 5932 5932 5930 5925 5925 5923 5917 5916 5914
5827 5833 5839 5844 5851 5854 5857 5864 5868 5872 5876 5880 5883 5886 5889 5893 5896 5899 5902 5905 5908 5911 5913 5916 5916 5918 5920 5923 5925 5927 5929 5927 5929 5930 5931 5932 5932 5930 5926 5924 5918 5917 5915 5913 5912
5820 5825 5831 5837 5843 5845 5855 5858 5863 5868 5872 5878 5877 5882 5885 5890 5893 5895 5898 5901 5904 5907 5911 5914 5914 5916 5918 5921 5922 5924 5922 5926 5927 5927 5927 5929 5931 5925 5924 5924 5915 5912 5909 5909 5908
5815 5818 5823 5829 5835 5841 5846 5852 5857 5864 5865 5868 5872 5878 5880 5886 5888 5890 5895 5898 5901 5903 5906 5908 5909 5913 5916 5917 5920 5921 5923 5923 5925 5925 5925 5926 5929 5930 5920 5919 5904 5910 5907 5908 5906
5809 5812 5815 5820 5826 5836 5841 5846 5852 5854 5867 5868 5867 5874 5878 5881 5884 5886 5891 5894 5898 5902 5905 5907 5908 5911 5913 5915 5917 5918 5919 5921 5924 5924 5922 5918 5920 5924 5918 5912 5914 5910 5905 5905 5903
5804 5806 5808 5813 5821 5826 5832 5839 5844 5853 5860 5867 5867 5868 5873 5877 5880 5882 5886 5890 5894 5898 5903 5905 5908 5909 5911 5912 5914 5914 5917 5918 5919 5920 5918 5915 5919 5911 5914 5908 5907 5906 5900 5901 5900
5798 5802 5804 5809 5813 5819 5824 5828 5840 5852 5859 5861 5861 5866 5869 5873 5877 5879 5883 5887 5891 5895 5899 5906 5908 5906 5907 5908 5911 5913 5913 5915 5914 5914 5914 5917 5916 5910 5906 5904 5900 5898 5897 5896 5895
5793 5797 5801 5805 5808 5812 5817 5827 5838 5841 5843 5847 5856 5862 5867 5872 5875 5878 5879 5883 5887 5891 5895 5900 5902 5901 5902 5905 5907 5908 5910 5911 5912 5911 5910 5912 5908 5905 5899 5883 5894 5895 5892 5892 5892
5787 5790 5797 5799 5803 5807 5815 5825 5829 5827 5836 5844 5852 5856 5864 5870 5873 5874 5878 5882 5884 5889 5891 5894 5897 5903 5899 5899 5902 5903 5905 5906 5907 5907 5906 5905 5904 5901 5897 5868 5888 5892 5889 5890 5889
5780 5784 5789 5794 5800 5805 5810 5819 5821 5825 5830 5838 5844 5846 5854 5862 5866 5869 5877 5878 5880 5885 5887 5888 5891 5894 5897 5898 5898 5898 5901 5902 5901 5902 5903 5902 5899 5893 5890 5890 5890 5888 5889 5888 5887
5773 5777 5784 5788 5794 5801 5807 5812 5815 5819 5825 5831 5837 5844 5848 5850 5856 5863 5868 5869 5869 5878 5876 5881 5885 5887 5891 5895 5896 5895 5895 5895 5895 5895 5895 5894 5895 5893 5891 5894 5889 5888 5890 5888 5885
5767 5772 5775 5781 5787 5791 5796 5805 5809 5812 5820 5824 5830 5834 5841 5847 5852 5858 5862 5861 5865 5870 5874 5878 5880 5882 5888 5889 5887 5889 5890 5890 5891 5891 5891 5894 5893 5881 5882 5882 5879 5886 5890 5886 5882
5759 5762 5765 5774 5778 5786 5792 5797 5800 5806 5815 5818 5824 5831 5837 5841 5845 5850 5855 5856 5859 5865 5870 5872 5873 5876 5880 5881 5884 5887 5887 5889 5888 5887 5887 5889 5885 5878 5879 5883 5874 5873 5886 5885 5880
5751 5754 5763 5766 5772 5778 5782 5789 5794 5802 5807 5813 5819 5825 5829 5833 5840 5844 5846 5853 5846 5856 5861 5865 5868 5870 5873 5876 5877 5881 5883 5884 5884 5884 5885 5883 5882 5882 5874 5873 5870 5868 5885 5882 5879
5745 5749 5755 5758 5766 5772 5777 5782 5788 5795 5798 5803 5807 5815 5821 5823 5825 5826 5833 5840 5835 5848 5855 5858 5861 5863 5867 5869 5870 5871 5875 5878 5878 5878 5879 5879 5877 5863 5868 5864 5860 5875 5879 5876 5875
Wind_Speed
18 16 13 11 11 12 13 15 16 18 20 20 19 19 20 19 17 16 14 13 12 14 17 17 15 14 15 17 21 21 13 18 3 10 6 3 10 12 7 11 14 18 19 20 21
19 17 13 12 13 13 13 15 16 18 19 20 19 17 17 18 16 14 14 12 12 12 15 16 16 17 18 19 13 19 17 24 12 16 5 9 9 15 14 10 17 17 20 20 20
21 20 16 14 13 14 14 16 17 18 19 20 19 18 16 15 15 13 12 11 12 12 13 15 14 14 18 21 1 8 10 13 4 4 5 6 4 10 10 21 15 21 19 19 19
25 21 18 16 17 17 17 16 17 19 20 20 19 17 15 14 14 12 11 10 10 10 11 13 14 13 15 16 13 7 10 12 6 2 1 3 3 5 6 19 26 23 19 20 20
27 25 23 19 18 18 18 18 17 19 20 20 20 18 16 15 12 11 11 9 9 10 10 11 13 13 17 8 17 12 7 7 5 1 3 5 7 6 4 14 14 17 16 19 20
29 27 24 20 20 18 19 20 20 19 20 20 21 20 18 15 13 11 10 10 9 10 10 11 12 12 9 13 16 14 8 7 5 3 4 4 5 12 15 13 16 18 19 17 19
31 29 25 23 21 20 20 20 21 21 20 20 20 20 19 14 14 12 10 9 10 10 10 10 10 10 11 10 10 8 7 5 3 3 3 10 5 5 16 17 18 18 19 21 22
33 32 29 26 24 23 21 22 21 20 21 21 21 20 18 18 15 14 12 11 11 11 11 10 10 8 6 6 8 5 4 1 9 11 10 6 17 15 15 17 20 20 19 19 22
33 33 32 29 28 26 24 24 22 21 21 21 22 21 19 18 18 17 15 14 13 13 13 13 11 9 9 7 3 10 4 5 10 13 12 5 5 17 19 18 21 18 18 17 19
33 33 33 32 29 29 27 25 24 23 22 22 21 22 22 20 19 18 17 16 14 14 14 13 12 11 9 9 7 5 12 8 15 10 10 7 4 11 18 18 23 17 17 15 18
35 33 34 33 32 30 29 28 26 25 22 23 20 23 19 19 20 19 17 16 16 15 13 12 14 11 4 9 20 22 19 18 11 11 12 10 6 11 6 19 15 20 18 19 20
39 35 34 35 33 32 30 31 27 26 24 24 21 21 19 21 20 20 19 17 16 15 14 11 11 9 19 17 12 11 22 18 10 13 11 11 8 9 14 16 15 23 19 23 22
40 40 35 35 34 34 33 31 28 28 27 25 24 23 21 20 20 20 19 18 17 16 15 14 5 22 13 14 13 12 12 8 13 11 6 14 7 17 18 21 26 20 22 21 22
39 41 41 36 35 34 36 31 30 28 29 27 25 25 23 22 21 20 19 18 17 17 16 18 19 15 15 15 14 6 12 18 12 11 4 12 13 16 15 21 29 16 23 25 21
32 38 42 42 37 38 32 33 32 29 29 24 30 28 23 23 24 22 21 19 18 17 18 14 21 19 14 15 17 12 21 14 14 14 15 13 12 16 12 10 21 14 30 30 26
25 30 38 43 43 38 36 33 33 33 32 28 29 23 26 25 26 25 22 21 20 20 20 21 19 18 16 16 16 18 16 16 14 14 14 13 14 10 17 26 13 21 35 28 25
24 24 33 41 46 41 37 35 33 36 26 18 29 24 24 25 25 25 23 23 21 18 16 17 16 16 17 16 16 16 16 12 9 13 23 27 19 10 18 28 30 31 33 25 21
23 18 26 35 36 42 42 41 40 34 28 17 15 24 23 23 25 25 24 24 23 21 12 11 14 16 15 17 15 15 15 14 13 12 21 24 22 16 21 31 26 20 26 20 15
24 20 21 25 31 35 39 45 39 27 22 22 24 20 21 23 24 26 25 23 21 22 22 8 13 10 15 16 18 13 16 14 18 19 21 17 22 14 14 23 23 21 20 18 16
26 26 23 25 29 32 36 34 32 32 31 31 23 28 21 20 24 22 24 24 24 23 22 17 10 13 23 20 18 18 18 16 12 16 18 15 26 33 37 16 18 13 16 17 16
30 29 26 28 30 33 31 27 35 42 39 35 31 17 19 19 24 24 21 21 20 20 21 25 25 11 20 21 15 17 16 19 21 20 21 20 25 35 36 19 14 17 14 15 14
32 33 32 32 31 29 30 30 37 23 38 37 36 35 31 22 21 24 18 18 24 21 23 25 25 22 17 15 12 13 18 16 17 17 19 24 28 21 22 10 13 23 14 15 14
34 38 33 35 33 30 31 35 35 37 30 33 31 34 33 35 34 27 19 29 30 28 33 25 26 25 22 19 13 23 19 20 22 24 24 25 24 36 12 15 18 26 16 13 9
32 32 35 36 36 39 39 36 40 37 32 32 34 36 38 34 33 29 32 36 34 30 31 29 27 28 19 19 24 25 18 11 15 21 19 17 20 14 30 21 26 13 12 13 10
33 35 39 36 39 37 39 41 46 39 34 37 37 35 33 34 35 34 32 27 38 34 32 29 33 30 25 26 17 12 15 11 16 15 20 19 25 33 35 33 32 16 14 14 14
37 39 33 36 39 40 42 41 44 40 38 39 39 39 37 37 37 41 43 36 37 38 34 37 33 32 29 24 23 23 22 23 24 18 19 24 25 32 38 35 25 1 17 20 18
35 38 36 39 36 38 39 41 41 39 44 45 47 43 40 44 47 47 46 44 51 39 36 36 32 33 28 26 23 25 22 22 23 20 22 19 23 40 34 36 6 13 16 20 18
Wind_Direction
221 222 221 209 212 209 199 192 192 183 178 175 171 163 156 150 146 145 146 146 139 136 139 128 131 135 135 132 109 130 238 122 61 83 68 61 7 11 345 10 17 9 6 6 16
225 226 230 221 215 209 204 195 192 188 185 178 176 171 162 151 148 148 142 140 135 139 145 136 141 145 146 139 127 159 175 130 176 215 120 13 21 9 339 237 30 10 5 5 8
222 227 235 225 221 218 206 204 195 193 192 185 183 179 173 159 151 148 142 138 135 140 147 153 149 152 161 141 355 324 108 66 212 213 107 109 4 4 319 309 25 22 358 8 4
228 229 236 230 221 218 212 210 200 195 195 190 190 187 185 172 164 155 149 145 141 138 152 159 165 167 170 156 179 15 325 146 210 170 13 37 105 93 324 316 346 12 9 2 6
228 232 233 229 219 216 215 211 209 202 199 195 194 194 194 187 175 168 156 157 160 152 165 173 173 179 167 177 191 148 243 201 194 181 7 18 20 343 6 333 350 11 12 1 1
227 233 235 228 219 217 218 216 210 212 205 202 201 199 201 194 192 189 175 169 179 177 178 183 188 187 199 186 185 215 207 209 186 149 13 329 125 312 338 328 7 9 3 5 356
228 231 233 231 221 218 219 220 217 212 212 210 208 209 208 199 205 209 199 188 190 198 197 193 192 202 189 175 206 210 192 178 27 347 301 289 318 50 313 335 350 3 3 358 350
229 229 231 229 227 222 219 219 219 218 216 217 216 218 216 214 216 221 219 213 203 206 210 207 204 201 206 220 194 192 184 79 286 260 304 353 354 318 326 342 349 358 359 352 342
229 230 230 231 226 225 220 220 217 218 220 219 222 223 220 221 223 222 221 221 216 212 217 217 209 200 197 183 149 359 312 282 215 264 265 262 199 316 330 335 339 351 345 343 332
229 229 230 230 226 224 223 222 218 216 217 217 220 225 222 225 224 223 222 224 223 220 220 220 215 203 194 178 108 229 265 298 277 266 275 299 358 276 299 332 329 347 334 333 330
229 227 228 230 229 225 223 221 221 219 221 221 223 228 220 227 227 226 225 224 224 224 221 217 215 207 181 263 221 198 193 197 217 268 263 294 294 282 296 310 323 332 334 333 331
229 228 226 228 229 226 223 223 219 222 220 225 223 229 226 227 228 227 227 227 226 224 223 218 223 194 222 229 229 218 217 232 267 267 280 292 323 300 283 309 331 315 333 328 328
231 229 228 226 225 228 225 225 222 224 222 226 223 226 226 228 229 229 228 227 227 225 224 202 195 230 232 220 226 234 241 231 246 242 295 308 302 319 307 315 323 316 321 328 329
232 230 227 227 225 227 228 224 225 227 229 228 226 226 226 229 230 230 228 227 227 225 222 217 221 242 232 223 228 207 242 249 256 260 258 287 286 302 271 298 309 309 325 324 325
232 230 227 225 225 224 225 225 226 226 233 246 232 228 227 228 232 228 227 229 225 224 226 228 230 244 235 225 225 207 239 258 270 278 279 270 279 268 306 263 281 297 321 318 323
233 234 229 224 225 225 224 223 224 224 225 236 239 226 229 225 228 229 226 226 222 223 221 220 236 235 234 235 238 239 258 264 273 278 286 298 271 249 276 285 287 287 304 308 311
235 242 228 223 223 226 226 224 223 222 208 228 247 232 230 224 229 232 225 226 226 226 227 232 243 238 238 244 247 253 259 267 289 287 281 280 221 241 279 275 290 288 288 300 303
234 244 228 220 217 222 222 223 221 220 210 230 235 237 229 226 223 233 226 223 219 215 198 259 259 259 253 247 248 257 255 254 248 245 291 303 293 300 255 282 295 277 285 296 304
228 228 220 210 211 215 218 222 221 216 207 232 221 213 228 224 226 230 224 222 219 221 207 196 255 226 235 251 247 250 251 254 259 261 271 274 294 234 263 284 288 297 289 297 308
224 222 218 211 210 212 216 215 206 200 203 209 217 223 218 211 226 220 229 222 217 221 217 189 213 228 256 253 251 249 254 259 281 280 279 276 271 271 275 212 282 313 321 317 320
222 221 212 214 214 216 214 211 209 211 203 212 214 190 201 214 214 217 226 227 231 218 228 208 216 219 257 264 261 270 270 270 260 236 256 264 282 270 284 283 292 306 326 318 318
223 222 216 214 217 215 209 204 204 207 214 219 215 198 192 197 221 215 215 218 237 196 237 223 227 224 226 273 290 268 230 236 272 268 260 270 275 301 302 292 274 300 311 313 318
223 222 217 218 214 214 209 206 214 219 210 210 212 214 215 191 200 202 186 214 216 216 208 223 222 229 238 245 260 261 271 248 251 259 249 255 267 266 237 277 278 281 293 294 311
225 224 223 216 215 213 208 206 219 219 209 206 206 209 214 216 222 217 209 221 226 226 229 232 231 233 225 253 246 234 253 271 248 254 263 264 279 236 243 246 251 202 275 285 298
224 222 221 219 220 214 219 212 217 223 213 217 215 213 211 216 227 221 226 229 239 236 237 243 241 242 240 232 251 260 284 277 277 284 268 243 255 263 275 279 271 172 263 267 287
225 228 223 221 223 220 216 218 223 221 220 225 224 223 223 223 219 223 229 231 249 237 233 239 243 243 245 252 241 253 252 260 251 246 258 275 261 282 277 288 249 161 268 262 278
225 228 224 224 222 221 225 224 227 225 228 228 227 224 227 226 222 224 228 221 231 235 233 236 240 248 252 254 252 240 237 252 260 257 250 270 269 254 263 274 50 282 280 268 267